Flag for U.S.A. Weather past 2 weeks in Tuscaloosa, Alabama, U.S.A.

Now
85 °F

Sunny.


Feels Like: 83 °F
Forecast: 55 / 83 °F
Wind: 9 mph from Northeast

Location: Tuscaloosa Municipal Airport

Current Time: Sep 23, 2014 at 6:10:52 PM

Latest Report: Sep 23, 2014 at 4:53 PM


Visibility: 10 mi

Pressure: 30.08 "Hg

Humidity: 28%

Dew point: 48 °F

Location of TuscaloosaLocation

Historic Weather in Tuscaloosa — Graph

°F

Tuscaloosa temperature yesterday

Maximum temperature yesterday: 84 °F (at 2:53 PM)
Minimum temperature yesterday: 61 °F (at 11:53 PM)
Average temperature yesterday: 74 °F

Past Weeks' High & Low Weather Summary

 TemperatureHumidityPressure
High93 °F (Sep 10, 2:53 PM)97% (Sep 12, 5:53 AM)30.18 "Hg (Sep 12, 5:53 AM)
Low53 °F (Sep 23, 5:53 AM)26% (Sep 22, 2:53 PM)29.88 "Hg (Sep 18, 4:53 PM)
Average78 °F71%30.03 "Hg
* Reported Sep 8 4:53 PM — Sep 23 4:53 PM, Tuscaloosa, Weather by CustomWeather, © 2014

Note: Actual official high and low records may vary slightly from our data, if they occured in-between our weather recording intervals... More about our weather records

Advertising

Tuscaloosa weather history for previous 24 hours

 ConditionsComfort  
Time TempWeatherWind HumidityBarometerVisibility
4:53 PM
Sep 23
85 °FSunny.9 mph28%30.08 "Hg10 mi
3:53 PM87 °FSunny.14 mph29%30.09 "Hg10 mi
2:53 PM86 °FSunny.N/A31%30.10 "Hg10 mi
1:53 PM84 °FSunny.5 mph36%30.12 "Hg10 mi
12:53 PM81 °FSunny.8 mph39%30.16 "Hg10 mi
11:53 AM80 °FSunny.14 mph41%30.16 "Hg10 mi
10:53 AM78 °FSunny.9 mph45%30.18 "Hg10 mi
9:53 AM72 °FSunny.6 mph53%30.18 "Hg10 mi
8:53 AM66 °FSunny.7 mph63%30.17 "Hg10 mi
7:53 AM60 °FSunny.3 mph75%30.16 "Hg10 mi
6:53 AM53 °FClear.No wind86%30.15 "Hg10 mi
5:53 AM53 °FClear.No wind86%30.14 "Hg10 mi
4:53 AM54 °FClear.No wind86%30.14 "Hg10 mi
3:53 AM55 °FClear.3 mph80%30.14 "Hg10 mi
2:53 AM58 °FClear.5 mph72%30.13 "Hg10 mi
1:53 AM59 °FClear.3 mph72%30.13 "Hg10 mi
12:53 AM58 °FClear.No wind78%30.12 "Hg10 mi
11:53 PM
Sep 22
61 °FClear.7 mph70%30.11 "Hg10 mi
10:53 PM63 °FClear.8 mph68%30.12 "Hg10 mi
9:53 PM64 °FClear.7 mph65%30.11 "Hg10 mi
8:53 PM67 °FClear.8 mph55%30.11 "Hg10 mi
7:53 PM70 °FClear.8 mph49%30.09 "Hg10 mi
6:53 PM73 °FSunny.7 mph43%30.07 "Hg10 mi
Weather by CustomWeather, © 2014

See weather overviewHow to use our weather pages